Showing default

YAOGAN-30 V, 46808

Orbit data source: Space-Track

YAOGAN-30 V, 46808 is a payload satellite owned by PLA SSF (CN) in LEO that was launched on Mon, 26 Oct 2020 UTC via a CHANG ZHENG 2C launch vehicle from the Xichang Space Center, China (XSC). Payload-class satellites include a variety of spacecraft equipped with specific instruments for various scientific and technological missions. These include communications satellites like Starlink; space stations such as the ISS; scientific satellites like the Hubble; Earth observation satellites from companies like Planet Labs, Umbra, and HawkEye 360; GPS; miniature CubeSats for education and research; and military/defense satellites.

Loading next visibility...
Identifier
46808, 2020-076B
Orbit
LEO
Country
Flag of CNCN / PRC
Related business
Manufacturer
SECM
Mission
Operational Defense Sigint
Bus & Motor
Unknown
Mass
~500 kg wet, ~500 kg dry
Launch date (UTC)
2020-10-26 (5 years ago)
Launch vehicle
CHANG ZHENG 2C
Launch site
Xichang Space Center, China (XSC)
Object type
Payload
Rocket body
Debris
Shape & HBR
Box + 2 Pan, Unknown HBR
Radar Cross Section
0.446 m², Large (>1 m²)

Expand to show TLE details & history
Last TLE update: 9 hours ago

TLE from 9 hours ago
0 YAOGAN-30 V
1 46808U 20076B   25259.59664876  .00002943  00000-0  23060-3 0  9997
2 46808  34.9953 316.2308 0001669 152.1398 207.9399 15.00589364267077
Epoch: 2025-09-16T14:19Z
TLE epoch observation values (Epoch: 2025-09-16T14:19:10.452Z)
Latitude
-0.00004°
Longitude
105.65252°
Altitude
565.019 km
Speed
7.58 km/s
True Right ascension
21h 04m 55s
True Declination
0° 00' 00"
Sunlit
Object was in full shadow at epoch
Visualization orbit readout
Latitude
Unknown
Longitude
Unknown
Altitude
Unknown
Speed
Unknown
Apparent Right ascension
Unknown
Apparent Declination
Unknown
Sunlit
N/A
Visualization observer readout
Local Sidereal Time
15:57:37
Azimuth
Unknown
Elevation
Unknown
Doppler factor
Unknown
Orbital elements
Apogee altitude
569.456 km
Perigee altitude
567.137 km
Semi-major axis
6,946.434 km
Eccentricity
0.00017
Inclination
34.9953°
RAAN
316.2308°
Arg. of periapsis
152.1398°
True anomaly
207.93094°
Mean anomaly
207.9399°
Eccentric anomaly
207.93542°
Mean motion
3.74887 °/min
Orbital period
96.03 mins
BSTAR
0.0002306
Loading maneuver chart data...
Computing Atmospheric mass density...
Loading historical data...
Loading historical data...
Loading historical data...
Loading historical data...
Loading historical data...
Loading historical data...
Loading historical data...
Other satellites on launch #76 in the year 2020 (2020-10-26 UTC)

Documentation

Showing up to 5 results
|